Watson Lake,

6:21 AM PDT on May 24, 2017 (GMT -0700)
Watson Lake

Weather History for CYQH - November, 2012

Change the Weather History Date:

Sunday, November 11, 2012

  Actual Average Record
Temperature  
Mean Temperature 14 °F -  
Max Temperature 17 °F 8 °F 37 °F (2016)
Min Temperature 10 °F -9 °F -9 °F (1997)
Degree Days  
Heating Degree Days 52    
Moisture  
Dew Point 12 °F    
Average Humidity 90    
Maximum Humidity 93    
Minimum Humidity 85    
Precipitation  
Precipitation 0.00 in 0.04 in - ()
Sea Level Pressure  
Sea Level Pressure 29.85 in    
Wind  
Wind Speed 0 mph ()    
Max Wind Speed 0 mph    
Max Gust Speed -    
Visibility 11.7 miles    
Events Snow    
Averages and records for this station are not official NWS values.
T = Trace of Precipitation, MM = Missing Value Source: Averaged Metar Reports

Daily Weather History Graph

Daily Weather History Graph

Search for Another Location

Airport or City:

Trip Planner

Search our weather history database for the weather conditions in past years. The results will help you decide how hot, cold, wet, or windy it might be!

Date:

Astronomy

Nov. 11, 2012 Rise Set
Actual Time 8:25 AM PST 4:12 PM PST
Civil Twilight 7:37 AM PST 5:00 PM PST
Nautical Twilight 6:45 AM PST 5:51 PM PST
Astronomical Twilight 5:56 AM PST 6:40 PM PST
Moon 5:16 AM PST (11/11) 3:04 PM PST (11/11)
Length of Visible Light 9h 23m
Length of Day
7h 46m
Waning Crescent, 6% of the Moon is Illuminated
Nov 11
Waning Crescent
Nov 13
New
Nov 20
First Quarter
Nov 28
Full
Dec 6
Last Quarter

Hourly Weather History & Observations

Time (PST) Temp. Dew Point Humidity Pressure Visibility Wind Dir Wind Speed Gust Speed Precip Events Conditions
12:00 AM 12.2 °F 8.6 °F 85% 29.89 in 20.0 mi Calm Calm - N/A Snow Light Snow
12:20 AM - - N/A% - 20.0 mi Calm Calm - N/A   Overcast
1:00 AM 10.4 °F 8.6 °F 92% 29.88 in 20.0 mi Calm Calm - N/A   Overcast
2:00 AM 12.2 °F 8.6 °F 85% 29.87 in 20.0 mi Calm Calm - N/A   Overcast
3:00 AM 12.2 °F 8.6 °F 85% 29.87 in 20.0 mi Calm Calm - N/A   Overcast
4:00 AM 12.2 °F 8.6 °F 85% 29.86 in 20.0 mi Calm Calm - N/A   Overcast
5:00 AM 12.2 °F 8.6 °F 85% 29.86 in 20.0 mi Calm Calm - N/A   Overcast
6:00 AM 12.2 °F 10.4 °F 92% 29.86 in 20.0 mi Calm Calm - N/A   Overcast
6:15 AM - - N/A% - 10.0 mi Calm Calm - N/A   Unknown
7:00 AM 12.2 °F 10.4 °F 92% 29.85 in 10.0 mi Calm Calm - N/A Snow Light Snow
8:00 AM 14.0 °F 10.4 °F 86% 29.85 in 10.0 mi Calm Calm - N/A Snow Light Snow
9:00 AM 12.2 °F 10.4 °F 92% 29.84 in 10.0 mi Calm Calm - N/A Snow Light Snow
10:00 AM 14.0 °F 10.4 °F 86% 29.84 in 10.0 mi Calm Calm - N/A Snow Light Snow
11:00 AM 15.8 °F 12.2 °F 86% 29.84 in 10.0 mi Calm Calm - N/A Snow Light Snow
12:00 PM 15.8 °F 12.2 °F 86% 29.84 in 10.0 mi Calm Calm - N/A Snow Light Snow
1:00 PM 15.8 °F 14.0 °F 93% 29.84 in 10.0 mi Calm Calm - N/A Snow Light Snow
2:00 PM 17.6 °F 15.8 °F 93% 29.84 in 10.0 mi Calm Calm - N/A Snow Light Snow
3:00 PM 17.6 °F 15.8 °F 93% 29.83 in 10.0 mi Calm Calm - N/A Snow Light Snow
4:00 PM 17.6 °F 15.8 °F 93% 29.83 in 5.0 mi Calm Calm - N/A Snow Light Snow
5:00 PM 15.8 °F 14.0 °F 93% 29.83 in 5.0 mi Calm Calm - N/A Snow Light Snow
6:00 PM 17.6 °F 15.8 °F 93% 29.83 in 4.0 mi Calm Calm - N/A Snow Light Snow
7:00 PM 17.6 °F 15.8 °F 93% 29.83 in 4.0 mi Calm Calm - N/A Snow Light Snow
8:00 PM 15.8 °F 14.0 °F 93% 29.82 in 5.0 mi Calm Calm - N/A Snow Light Snow
9:00 PM 15.8 °F 14.0 °F 93% 29.83 in 5.0 mi Calm Calm - N/A Snow Light Snow
11:00 PM 17.6 °F 15.8 °F 93% 29.84 in 4.0 mi Calm Calm - N/A Snow Light Snow